{"data":{"norad_id":69363,"intl_designator":"2026-123L","name":"STARLINK-37582","alt_names":[],"object_type":"PAYLOAD","status":"ACTIVE","operator":null,"country":"US","launch_date":"2026-06-04","launch_site_code":"AFETR","launch_vehicle":null,"mission":null,"orbit_class":"UNKNOWN","rcs_meters":null,"size_class":null,"mass_kg":null,"dimensions":null,"purposes":["comms"],"wikipedia_slug":null,"has_3d_model":false,"image_url":null,"decayed_at":null,"tle_current":{"epoch":"2026-09-19T22:40:15.278592Z","epoch_age_seconds":77084,"freshness":"FRESH","line1":"1 69363U 26123L   26262.94462128  .00016812  00000+0  50781-3 0  9996","line2":"2 69363  53.1593 144.4140 0001321  84.2544 275.8609 15.34385423 16784","mean_motion":15.34385423,"eccentricity":0.0001321,"inclination_deg":53.1593,"raan_deg":144.414,"arg_perigee_deg":84.2544,"mean_anomaly_deg":275.8609,"bstar":0.00050781,"rev_number":1678,"period_min":93.848649655739,"perigee_km":461.84288574694,"apogee_km":463.6502471852,"semimajor_km":6840.8835664661,"source":"CELESTRAK","updated_at":"2026-09-20T09:00:44.166293Z"}}}